map of MYJ home
MYJ - Airport
Location
City:  Matsuyama, Skikoku, Ehime, Japan
Name:Matsuyama Airport
ICAO:RJOM
IATA:MYJ

Details
Type:Airport (Aerodrome, Airfield)
Use:Public/Civil
Latitude:3349'38"N (33.827222)
Longitude:13241'59"E (132.699722)
Datum:WGS 1984
Elevation:25 ft (8 m)
Variation:7.64W (WMM2015v2 magnetic declination)
-0.08 annual change
Runways:1
Longest:8200 × 150 ft (2499 × 45.5 m), paved

Time
Time Zone:UTC+9
Local Time:

Weather
METAR:RJOM 041200Z 02011KT 9999 FEW030 10/02 Q1022
TAF:RJOM 041107Z 0412/0518 02006KT 9999 FEW030 SCT060
BECMG 0413/0415 12006KT
BECMG 0500/0503 36012KT
BECMG 0509/0512 12008KT

Related Locations
Nearby:
Farthest:SSMT: 12156 mi / 19562 km
Mostardas, RS, BR

Find:

   beyond  
but within

Other Information
Maps:
NOTAMs:
Links:
Sources:

  
  • flag of Japan
  • flag of Ehime
  • flag of Matsuyama
  

Sectional Chart

Flight Planning
at skyvector.com

Satellite Image

Google Maps Satellite view

 

Copyright © 2004-2019 Karl L. Swartz. All rights reserved.
The Great Circle Mapper name and logo are trademarks of the Great Circle Mapper.
All other trademarks mentioned herein belong to their respective owners.
Please see credits for attibutions and further copyright information.

  Follow gcmap on Facebook Follow gcmap on Twitter GCmap on LinkedIn

hCard Microformat

Geo Microformat